Flag for Philippines Weather past 2 weeks in Tarlac City, Philippines

Now
91 °F

Hot.


Feels Like: 100 °F
Forecast: 78 / 94 °F
Wind: 12 mph from Northwest

Location: Clarkfield Pampanga International Airport

Current Time: Jun 3, 2015 at 6:06:29 PM

Latest Report: Jun 3, 2015 at 5:00 PM


Visibility: N/A

Pressure: 29.80 "Hg

Humidity: 56%

Dew point: 73 °F

Location of Tarlac CityLocation

Historic Weather in Tarlac City — Graph

°F

Tarlac City temperature yesterday

Maximum temperature yesterday: 93 °F (at 2:00 PM)
Minimum temperature yesterday: 79 °F (at 4:00 AM)
Average temperature yesterday: 85 °F

Past Weeks' High & Low Weather Summary

 TemperatureHumidityPressure
High95 °F (Jun 3, 3:00 PM)100% (May 24, 11:00 PM)29.95 "Hg (May 24, 11:00 PM)
Low75 °F (May 25, 4:00 PM)41% (Jun 3, 3:00 PM)29.74 "Hg (May 31, 4:00 PM)
Average83 °F78%29.87 "Hg
* Reported May 19 5:00 PM — Jun 3 5:00 PM, Tarlac City, Weather by CustomWeather, © 2015

Note: Actual official high and low records may vary slightly from our data, if they occured in-between our weather recording intervals... More about our weather records

Advertising

Tarlac City weather history for previous 24 hours

 ConditionsComfort  
Time TempWeatherWind HumidityBarometerVisibility
5:00 PM
Wed, Jun 3
91 °FHot.12 mph56%29.80 "HgN/A
4:00 PM91 °FHot.14 mph56%29.77 "HgN/A
3:00 PM95 °FExtremely hot.3 mph41%29.80 "HgN/A
2:00 PM93 °FExtremely hot.3 mph49%29.80 "HgN/A
1:00 PM93 °FExtremely hot.2 mph49%29.83 "HgN/A
12:00 PM93 °FExtremely hot.2 mph49%29.86 "HgN/A
11:00 AM90 °FHot.3 mph59%29.89 "HgN/A
10:00 AM90 °FHot.3 mph63%29.89 "HgN/A
9:00 AM86 °FWarm.2 mph75%29.92 "HgN/A
8:00 AM86 °FWarm.2 mph75%29.92 "HgN/A
7:00 AM82 °FWarm.2 mph89%29.89 "HgN/A
6:00 AM81 °FWarm.5 mph89%29.89 "HgN/A
5:00 AM79 °FWarm.3 mph94%29.86 "HgN/A
4:00 AM81 °FWarm.3 mph89%29.86 "HgN/A
3:00 AM81 °FWarm.5 mph89%29.86 "HgN/A
2:00 AM81 °FWarm.5 mph89%29.89 "HgN/A
1:00 AM81 °FWarm.2 mph94%29.89 "HgN/A
12:00 AM82 °FWarm.1 mph79%29.89 "HgN/A
11:00 PM
Tue, Jun 2
82 °FWarm.2 mph84%29.92 "HgN/A
10:00 PM81 °FPassing clouds.6 mph84%29.89 "Hg5 mi
9:00 PM82 °FPassing clouds.2 mph74%29.89 "Hg5 mi
8:00 PM82 °FThundershowers. Passing clouds.14 mph74%29.89 "Hg5 mi
7:00 PM88 °FPassing clouds.5 mph59%29.83 "HgN/A
6:00 PM91 °FPassing clouds.2 mph52%29.80 "HgN/A
Weather by CustomWeather, © 2015

See weather overviewHow to use our weather pages